This demonstration page uses our WeatherBlox Daily Observations layout. Learn more.

Left ArrowRight Arrow

38.88101, -77.10428

Hourly Observations for May 11, 2022

Temp ( °F °C ) Dew Point ( °F °C ) Humidity (%) Winds ( mph kmh ) Pressure ( in mb ) Visibility ( mi km ) Precip ( " mm )
12:52 am 00:52 Mostly Clear 57 13.9 44 6.7 62 62 Calm 30.29 1026 10 16 0.00 0.00
1:52 am 01:52 Mostly Clear 55 12.8 43 6.1 64 64 N 6 9 30.28 1025 10 16 0.00 0.00
2:52 am 02:52 Clear 54 12.2 43 6.1 67 67 NNE 7 11 30.27 1025 10 16 0.00 0.00
3:52 am 03:52 Clear 54 12.2 40 4.4 59 59 NE 6 9 30.26 1025 10 16 0.00 0.00
4:52 am 04:52 Clear 55 12.8 35 1.7 47 47 NE 8 13 30.25 1025 10 16 0.00 0.00
5:52 am 05:52 Mostly Clear 53 11.7 36 2.2 52 52 N 9 15 30.25 1024 10 16 0.00 0.00
6:52 am 06:52 Mostly Sunny 56 13.3 35 1.7 46 46 N 12 19 30.26 1025 10 16 0.00 0.00
7:52 am 07:52 Sunny 60 15.6 33 0.6 36 36 N 14 22 30.27 1025 10 16 0.00 0.00
8:52 am 08:52 Sunny 64 17.8 34 1.1 33 33 NNE 14 22 30.27 1025 10 16 0.00 0.00
9:52 am 09:52 Mostly Sunny 66 18.9 40 4.4 39 39 NNE 15 24 30.26 1025 10 16 0.00 0.00
10:52 am 10:52 Partly Cloudy 68 20 41 5 38 38 NNE 14 22 30.26 1025 10 16 0.00 0.00
11:52 am 11:52 Mostly Cloudy 70 21.1 45 7.2 41 41 NE 17 28 30.25 1024 10 16 0.00 0.00
12:52 pm 12:52 Mostly Cloudy 72 22.2 47 8.3 41 41 NNE 15 24 30.23 1024 10 16 0.00 0.00
1:52 pm 13:52 Mostly Cloudy 73 22.8 48 8.9 41 41 NNE 12 19 30.22 1023 10 16 0.00 0.00
2:52 pm 14:52 Cloudy 72 22.2 49 9.4 44 44 NE 18 30 30.22 1023 10 16 0.00 0.00
3:52 pm 15:52 Cloudy 71 21.7 50 10 47 47 ENE 13 20 30.21 1023 10 16 0.00 0.00
4:52 pm 16:52 Cloudy 69 20.6 52 11.1 55 55 ENE 10 17 30.22 1023 10 16 0.00 0.00
5:52 pm 17:52 Mostly Cloudy 70 21.1 51 10.6 51 51 NE 9 15 30.23 1024 10 16 0.00 0.00
6:52 pm 18:52 Mostly Cloudy 70 21.1 52 11.1 53 53 NE 5 7 30.22 1023 10 16 0.00 0.00
7:52 pm 19:52 Mostly Cloudy 67 19.4 53 11.7 61 61 E 7 11 30.22 1024 10 16 0.00 0.00
8:52 pm 20:52 Mostly Clear 65 18.3 52 11.1 63 63 E 6 9 30.22 1023 10 16 0.00 0.00
9:52 pm 21:52 Mostly Clear 66 18.9 51 10.6 59 59 Calm 30.23 1024 10 16 0.00 0.00
10:52 pm 22:52 Mostly Clear 65 18.3 51 10.6 61 61 NNW 3 6 30.22 1023 10 16 0.00 0.00
11:52 pm 23:52 Partly Cloudy 63 17.2 52 11.1 68 68 N 6 9 30.22 1023 10 16 0.00 0.00

Powered by AerisWeather